Wind_Speed
4 3 2 3 4 5 8 9 9 10 11 13 16 19 20 19 16 13 10 9 10 11 14 16 17 19 21 24 26 28 30 31 33 34 35 35 36 36 37 37 36 36 36 36
7 5 3 2 3 5 8 10 10 11 13 14 17 18 16 14 10 8 7 7 8 10 12 14 17 19 21 23 25 27 29 31 32 33 34 34 34 34 35 36 36 36 36 37
9 4 3 1 1 4 6 10 12 14 16 19 21 21 19 10 7 3 3 3 6 9 12 14 16 18 20 21 23 25 27 28 29 30 31 32 33 33 34 34 35 35 36 36
8 5 3 2 4 7 8 10 13 14 15 18 20 19 13 9 6 5 4 4 6 9 12 14 16 18 19 21 22 24 25 26 28 29 30 31 32 33 34 34 34 34 34 34
8 6 6 6 7 9 10 10 12 12 13 15 16 17 14 12 9 8 7 8 8 10 12 15 17 19 20 22 23 24 25 26 28 29 29 30 31 32 33 33 33 34 34 34
8 7 7 8 10 11 10 9 10 10 11 11 12 14 14 12 12 11 10 10 11 13 15 17 19 21 22 23 24 25 27 28 29 30 31 31 32 33 33 34 34 34 35 35
8 7 6 8 9 9 8 9 9 8 8 9 10 11 13 12 11 11 11 12 14 17 19 21 23 24 26 27 28 29 30 31 32 32 33 33 34 34 34 35 35 35 36 37
6 6 5 6 7 6 7 8 9 9 10 9 9 10 12 11 11 12 14 16 18 21 23 25 27 29 30 31 32 33 34 35 35 35 35 35 35 35 35 36 36 37 37 38
7 7 6 6 7 7 8 8 8 8 9 9 9 9 12 12 13 15 18 20 22 24 27 29 31 33 34 35 35 36 36 36 35 35 35 35 35 35 36 37 38 38 39 39
8 8 7 8 9 11 12 10 8 7 7 9 11 12 15 16 17 18 20 23 25 27 30 32 34 35 36 36 37 37 37 36 36 36 35 35 35 36 37 38 39 39 39 40
9 8 7 7 7 8 9 8 8 8 10 12 16 18 18 19 19 21 23 25 27 29 31 34 35 35 36 36 36 37 37 37 36 36 36 36 37 38 39 39 40 40 40 40
8 8 7 7 6 6 8 10 10 11 13 16 19 20 20 20 21 23 25 26 27 29 31 33 34 35 35 35 36 36 36 36 37 37 37 38 39 40 40 41 41 41 40 40
8 9 9 8 7 7 8 10 12 14 15 17 19 20 20 20 22 23 24 25 27 29 31 33 33 34 34 34 35 36 36 37 38 38 39 40 41 41 42 41 41 41 40 39
9 10 9 9 10 10 8 9 13 15 16 17 18 19 19 20 21 23 23 25 27 29 31 32 33 33 34 34 35 36 37 38 39 40 40 41 42 43 42 42 41 40 39 38
7 8 9 9 10 10 10 10 13 15 16 17 18 19 20 20 21 22 24 26 28 30 32 33 33 34 34 35 36 37 38 39 41 41 42 43 43 43 43 42 41 40 38 38
6 5 6 7 10 10 11 11 13 14 16 18 19 20 21 21 22 23 25 27 29 31 33 34 34 35 36 36 37 39 40 41 42 43 44 44 44 44 44 42 41 39 38 39
7 7 6 7 9 10 12 11 12 14 16 18 20 21 21 22 22 23 25 27 30 32 34 35 36 37 37 38 39 40 42 43 44 45 46 46 46 45 44 43 41 39 39 39
6 7 8 9 9 9 11 13 14 16 18 18 19 21 22 23 23 24 26 29 31 33 35 37 37 38 39 39 41 42 43 45 46 47 47 48 47 46 45 43 41 40 39 40
6 7 10 11 11 11 13 14 15 17 18 19 21 23 23 24 25 26 28 31 33 34 36 37 38 39 40 41 42 43 44 46 47 47 48 48 48 46 44 43 41 40 40 40
10 11 13 13 14 13 12 13 17 19 20 21 23 23 24 26 27 29 30 32 34 35 37 38 39 39 41 42 43 44 45 46 47 48 48 48 48 46 44 43 41 41 41 40
15 16 17 17 18 18 18 20 21 22 23 23 23 24 25 26 28 29 32 34 35 36 37 38 39 41 42 43 44 45 46 47 47 48 48 48 48 47 45 43 41 41 40 39
20 20 21 21 23 23 23 24 24 24 24 24 24 24 25 26 28 30 32 34 35 37 38 39 40 42 43 44 45 45 46 47 47 47 48 48 48 47 45 43 41 41 40 39
22 23 24 23 23 24 24 25 26 26 26 25 25 24 25 26 28 30 33 36 37 38 39 40 42 43 44 45 45 46 46 46 47 47 47 47 48 47 45 43 41 40 39 38
21 24 26 26 24 24 24 25 26 26 27 26 26 25 26 27 28 31 34 37 39 40 41 42 43 44 45 45 45 45 46 46 47 47 46 47 47 46 44 42 41 39 38 37
20 24 26 27 25 24 24 25 26 27 28 28 28 28 28 29 30 32 35 38 41 42 43 43 43 44 45 46 46 46 46 46 46 46 46 46 46 45 44 42 40 38 37 36
22 26 27 27 26 26 26 27 28 30 30 31 32 33 33 34 34 35 37 40 42 44 44 45 45 46 46 46 46 46 46 46 46 45 45 45 45 44 43 41 39 37 36 35
Wind_Direction
62 103 148 192 209 224 249 259 277 285 280 277 286 282 275 274 268 258 252 259 274 283 286 288 289 290 292 292 292 291 291 291 291 291 291 291 291 291 291 291 289 288 287 286
35 71 100 166 209 252 281 299 303 319 321 319 316 311 303 294 284 271 249 253 276 285 289 291 293 294 293 293 293 292 292 292 292 293 293 292 292 291 290 289 289 288 286 284
9 48 89 124 278 294 308 325 333 337 337 340 340 332 324 324 300 295 282 270 293 300 303 305 304 302 300 299 298 298 297 296 296 296 296 295 294 293 292 291 290 289 287 285
9 14 14 9 4 346 341 341 345 351 355 354 355 357 0 8 14 32 21 353 328 323 322 319 317 314 312 310 307 305 303 302 301 300 299 298 297 297 296 296 295 294 292 290
15 22 30 17 11 357 354 352 352 351 354 2 11 20 29 28 30 30 21 3 350 342 337 330 326 322 320 316 313 310 308 307 305 304 303 302 301 300 299 298 297 296 295 294
19 19 19 13 2 352 349 347 343 346 356 10 21 32 36 37 30 25 16 0 355 350 345 339 334 329 326 322 319 316 314 312 309 307 306 305 305 304 303 302 300 299 297 295
21 21 17 4 350 339 329 328 327 334 344 1 18 34 27 23 19 14 4 356 354 352 347 342 338 334 330 327 325 322 320 318 315 312 310 308 307 306 305 303 301 299 297 295
4 1 6 2 351 343 324 318 318 322 329 344 356 0 2 7 10 5 359 355 353 350 346 342 339 336 333 330 327 325 323 320 316 313 311 310 308 307 305 304 302 300 297 295
354 344 342 341 344 352 347 338 334 328 328 327 332 338 344 360 5 360 357 354 351 347 344 342 339 337 334 331 328 325 322 320 318 316 313 312 310 309 307 305 302 299 297 294
344 332 321 317 318 331 338 345 350 344 332 322 325 332 346 4 3 357 354 352 349 347 344 341 338 335 332 330 327 325 324 323 321 319 318 315 314 312 310 307 304 300 297 293
334 323 309 304 308 319 330 339 349 351 337 328 328 336 349 359 359 354 352 350 347 345 341 338 335 332 331 329 329 329 328 327 326 324 322 320 318 315 312 309 306 302 298 294
317 308 296 306 320 336 346 344 344 344 337 332 331 338 348 356 354 351 348 345 342 339 337 335 333 332 331 331 331 331 331 330 329 328 326 324 322 319 316 312 309 305 301 297
308 302 298 291 296 313 333 333 331 334 336 336 334 339 347 351 348 344 342 339 336 336 335 334 333 332 332 332 332 332 332 332 331 330 328 327 325 322 319 315 311 307 304 300
307 298 294 293 293 299 306 311 314 321 328 334 336 340 345 343 340 337 335 332 333 333 334 333 333 334 334 334 334 334 334 334 333 332 331 329 327 324 321 317 313 310 306 303
312 301 298 293 288 293 296 300 304 313 323 328 333 338 337 334 331 330 329 329 331 333 333 333 334 334 335 335 336 336 336 336 335 334 332 331 329 326 322 319 316 312 309 305
335 324 305 294 289 293 295 295 300 310 318 325 331 333 328 326 326 326 327 328 329 330 332 333 334 335 336 336 337 337 337 337 336 335 334 333 331 328 324 321 318 314 311 309
326 341 335 318 306 299 289 293 296 304 312 322 325 323 321 320 322 323 322 323 325 328 330 333 335 335 336 336 335 335 336 336 336 335 334 334 332 330 326 323 320 317 314 312
300 321 328 324 314 305 298 300 300 302 308 315 316 315 316 316 318 318 319 322 325 327 330 332 333 333 334 334 334 334 334 334 335 334 334 334 333 331 328 325 322 319 317 316
306 318 324 322 318 311 307 308 305 304 308 313 312 312 313 314 317 319 320 322 324 326 328 330 330 331 332 332 332 333 333 334 334 334 334 334 334 332 329 327 324 322 320 319
309 316 320 320 322 322 324 315 310 310 313 311 310 312 312 313 316 318 319 320 322 325 326 328 328 329 330 331 331 332 332 333 333 334 334 334 334 333 331 328 326 325 323 321
307 312 317 321 323 323 323 321 319 320 318 315 314 311 310 310 312 315 316 318 320 322 324 326 327 327 328 329 330 330 331 332 333 334 335 335 335 334 333 330 328 327 326 324
297 302 307 311 312 314 315 316 317 317 317 315 312 310 309 309 311 312 314 316 319 321 323 325 326 326 327 328 328 329 330 332 333 334 335 335 335 335 334 332 330 329 329 327
284 291 295 298 303 306 308 311 313 313 312 311 310 310 309 309 310 312 314 316 318 320 322 324 325 326 326 327 327 328 329 331 333 334 335 336 336 336 335 333 332 331 331 331
281 286 289 294 298 301 303 305 305 306 307 308 308 308 307 308 310 311 313 315 317 319 321 323 324 325 326 326 326 327 329 331 333 334 335 336 337 336 335 334 334 334 334 334
281 281 284 289 294 296 298 299 300 302 304 306 306 306 307 308 310 311 313 315 316 318 320 321 323 324 325 326 326 327 328 330 332 333 335 336 337 337 336 335 334 335 336 336
282 281 283 287 290 293 295 296 297 300 303 305 306 307 308 309 310 312 313 315 316 317 319 320 322 323 324 325 326 326 327 328 331 333 334 335 336 337 337 335 335 336 337 338
Height
5876 5876 5876 5877 5877 5878 5878 5877 5877 5876 5875 5875 5873 5871 5868 5866 5865 5865 5866 5867 5867 5866 5865 5863 5861 5859 5857 5854 5851 5849 5846 5842 5839 5836 5833 5830 5827 5824 5821 5818 5816 5814 5812 5809
5878 5875 5875 5875 5875 5875 5875 5875 5874 5873 5872 5871 5869 5866 5862 5859 5859 5860 5862 5863 5864 5862 5861 5860 5858 5856 5852 5849 5846 5843 5840 5836 5832 5829 5825 5822 5819 5816 5813 5810 5807 5804 5802 5800
5878 5877 5875 5874 5874 5874 5873 5873 5872 5871 5869 5868 5866 5862 5859 5857 5856 5856 5858 5859 5860 5859 5858 5856 5854 5851 5848 5845 5841 5838 5834 5830 5826 5822 5818 5814 5811 5807 5804 5801 5798 5795 5792 5789
5878 5877 5876 5875 5874 5873 5872 5871 5870 5869 5868 5866 5865 5861 5858 5856 5856 5855 5857 5857 5857 5856 5854 5852 5849 5846 5843 5839 5836 5832 5828 5823 5819 5815 5811 5807 5803 5799 5795 5792 5788 5785 5782 5779
5878 5877 5876 5874 5872 5871 5870 5869 5869 5869 5868 5867 5865 5862 5861 5859 5858 5857 5856 5856 5854 5853 5850 5848 5845 5841 5838 5834 5830 5826 5822 5817 5813 5808 5804 5799 5795 5791 5787 5783 5780 5776 5772 5769
5878 5877 5875 5874 5872 5871 5869 5869 5869 5868 5868 5868 5866 5864 5862 5860 5858 5857 5856 5854 5852 5849 5846 5843 5840 5836 5832 5829 5824 5820 5816 5811 5806 5801 5796 5792 5787 5783 5779 5775 5771 5767 5763 5760
5878 5877 5875 5874 5872 5871 5870 5869 5869 5868 5867 5866 5865 5864 5863 5861 5859 5857 5854 5852 5849 5845 5842 5839 5835 5831 5827 5823 5818 5813 5808 5803 5798 5793 5788 5784 5779 5775 5770 5766 5762 5758 5754 5750
5877 5877 5875 5873 5872 5871 5869 5869 5868 5867 5865 5864 5863 5861 5861 5859 5857 5855 5851 5848 5845 5841 5838 5834 5830 5826 5821 5816 5811 5806 5801 5796 5791 5785 5780 5776 5771 5766 5762 5757 5753 5749 5745 5741
5876 5875 5874 5872 5871 5870 5869 5867 5866 5864 5862 5861 5860 5859 5858 5856 5854 5850 5847 5843 5840 5837 5833 5829 5824 5820 5815 5810 5805 5799 5794 5789 5783 5778 5773 5768 5763 5758 5753 5748 5744 5739 5735 5731
5875 5874 5873 5871 5870 5869 5868 5866 5864 5862 5860 5859 5857 5856 5855 5853 5850 5846 5843 5839 5836 5832 5828 5823 5819 5814 5810 5804 5799 5793 5788 5782 5776 5770 5765 5760 5754 5749 5744 5739 5734 5729 5724 5720
5874 5873 5872 5870 5869 5868 5866 5865 5862 5860 5858 5857 5854 5855 5851 5849 5846 5842 5839 5835 5831 5828 5824 5820 5816 5811 5806 5800 5794 5788 5781 5775 5769 5763 5757 5752 5746 5740 5734 5728 5723 5717 5712 5708
5872 5871 5869 5868 5867 5865 5863 5862 5860 5859 5857 5854 5852 5853 5848 5845 5842 5839 5836 5833 5830 5826 5822 5818 5813 5808 5802 5795 5789 5783 5776 5769 5763 5757 5750 5744 5737 5731 5724 5718 5711 5706 5700 5696
5870 5869 5867 5867 5867 5864 5861 5859 5857 5856 5854 5852 5849 5850 5845 5842 5839 5837 5834 5831 5827 5824 5820 5815 5810 5804 5798 5791 5785 5778 5771 5764 5757 5750 5743 5736 5729 5722 5714 5707 5701 5694 5689 5684
5867 5866 5865 5865 5862 5860 5859 5857 5855 5854 5852 5850 5848 5846 5843 5839 5837 5834 5832 5828 5825 5821 5816 5811 5805 5799 5793 5786 5779 5772 5766 5759 5751 5744 5736 5729 5721 5713 5705 5698 5690 5684 5678 5673
5864 5863 5862 5860 5859 5858 5857 5855 5854 5852 5850 5848 5845 5843 5841 5838 5835 5832 5829 5825 5821 5816 5812 5806 5801 5794 5788 5781 5774 5767 5760 5753 5745 5737 5730 5722 5713 5705 5696 5688 5681 5674 5667 5662
5861 5860 5859 5858 5856 5855 5854 5853 5852 5850 5847 5845 5843 5841 5838 5836 5833 5829 5825 5821 5817 5813 5808 5802 5795 5789 5782 5776 5769 5761 5754 5746 5738 5730 5722 5714 5705 5696 5687 5679 5671 5664 5657 5651
5858 5857 5857 5855 5854 5853 5852 5851 5849 5847 5845 5843 5841 5839 5836 5832 5829 5826 5822 5818 5814 5809 5803 5797 5790 5784 5777 5770 5763 5756 5748 5740 5732 5723 5715 5706 5697 5688 5679 5670 5662 5654 5647 5640
5856 5855 5854 5853 5852 5851 5851 5847 5845 5843 5842 5840 5838 5835 5832 5829 5826 5823 5818 5814 5809 5803 5797 5791 5785 5778 5771 5764 5757 5749 5741 5733 5725 5716 5707 5698 5689 5680 5670 5661 5653 5645 5637 5630
5853 5853 5851 5850 5848 5847 5846 5844 5842 5840 5838 5836 5833 5830 5827 5823 5820 5817 5813 5808 5803 5798 5792 5786 5779 5772 5765 5758 5751 5743 5735 5726 5718 5709 5700 5690 5681 5672 5662 5653 5644 5636 5628 5620
5850 5849 5848 5846 5844 5843 5844 5841 5838 5836 5833 5831 5828 5825 5821 5818 5815 5812 5807 5802 5797 5792 5786 5780 5773 5766 5759 5752 5744 5736 5728 5720 5711 5702 5692 5683 5673 5663 5654 5644 5635 5627 5619 5610
5846 5845 5843 5841 5839 5838 5837 5834 5833 5831 5829 5825 5822 5819 5816 5812 5809 5806 5801 5796 5791 5785 5780 5773 5767 5760 5753 5745 5737 5729 5721 5712 5703 5694 5684 5675 5665 5655 5646 5636 5627 5618 5610 5601
5842 5840 5839 5837 5835 5835 5832 5829 5827 5825 5822 5819 5816 5813 5810 5807 5803 5799 5794 5789 5784 5779 5773 5767 5760 5753 5746 5738 5731 5722 5714 5705 5696 5686 5677 5667 5657 5648 5638 5628 5619 5610 5601 5593
5838 5837 5835 5834 5833 5830 5826 5824 5821 5819 5816 5813 5811 5807 5804 5800 5797 5793 5788 5782 5777 5772 5766 5760 5753 5746 5739 5731 5723 5715 5706 5698 5688 5679 5669 5660 5650 5640 5630 5621 5612 5603 5594 5585
5835 5832 5829 5827 5826 5824 5821 5819 5816 5813 5810 5807 5804 5801 5798 5794 5791 5786 5781 5776 5770 5764 5758 5752 5745 5738 5731 5723 5715 5707 5699 5690 5681 5672 5662 5653 5643 5633 5623 5614 5605 5597 5588 5579
5829 5826 5823 5821 5820 5818 5816 5813 5809 5806 5803 5800 5797 5794 5791 5787 5784 5779 5774 5768 5762 5756 5750 5744 5738 5731 5724 5716 5708 5699 5691 5683 5674 5665 5655 5646 5637 5627 5618 5608 5600 5591 5582 5573
5822 5819 5816 5814 5813 5810 5808 5805 5801 5798 5795 5792 5789 5786 5782 5779 5776 5771 5766 5760 5754 5748 5742 5736 5729 5723 5715 5708 5700 5692 5683 5675 5667 5658 5649 5640 5631 5622 5613 5603 5594 5585 5577 5569